Location: Bishop�s Knoyle
(51.0728°N, 2.1714°W)
Time: 03:12:09
(UTC+00:00)

KAITUO 1B - Visible Passes

Search period start: 29 November 2021 00:00
Search period end: 09 December 2021 00:00
Orbit: 490 x 506 km, 97.4° (Epoch: 28 November)

Date Brightness Start Highest point End Pass type
(mag) Time Alt. Az. Time Alt. Az. Time Alt. Az.
29 Nov ? 06:32:56 10° NNE 06:36:37 53° E 06:40:15 10° S visible
29 Nov ? 17:15:24 10° SE 17:18:57 48° ENE 17:22:34 10° N visible
29 Nov ? 18:50:33 10° SW 18:52:57 16° W 18:55:23 10° NW visible
30 Nov ? 06:12:57 10° NNE 06:16:20 32° E 06:19:41 10° SSE visible
30 Nov ? 16:55:36 10° SE 16:58:52 30° ENE 17:02:10 10° N visible
30 Nov ? 18:29:27 10° SSW 18:32:36 26° W 18:35:46 10° NW visible
01 Dec ? 05:53:11 10° NE 05:56:00 20° E 05:58:48 10° SE visible
01 Dec ? 18:08:45 10° S 18:12:17 42° W 18:15:51 10° NNW visible
02 Dec ? 05:33:53 10° ENE 05:35:36 13° E 05:37:18 10° ESE visible
02 Dec ? 07:06:02 10° N 07:09:44 65° WNW 07:13:25 10° SSW visible
02 Dec ? 17:48:20 10° S 17:52:01 72° WSW 17:55:45 10° NNW visible
03 Dec ? 06:45:48 10° NNE 06:49:32 75° ESE 06:53:14 10° S visible
03 Dec ? 17:28:08 10° SSE 17:31:49 68° ENE 17:35:32 10° N visible
03 Dec ? 19:04:24 10° WSW 19:05:59 12° W 19:07:34 10° WNW visible
04 Dec ? 06:25:42 10° NNE 06:29:17 43° E 06:32:49 10° S visible
04 Dec ? 17:08:10 10° SE 17:11:40 40° ENE 17:15:11 10° N visible
04 Dec ? 18:42:48 10° SW 18:45:33 19° W 18:48:19 10° NW visible
05 Dec ? 06:05:45 10° NE 06:08:58 27° E 06:12:08 10° SSE visible
05 Dec ? 16:48:27 10° ESE 16:51:33 26° ENE 16:54:41 10° N visible
05 Dec ? 18:21:52 10° SSW 18:25:11 31° W 18:28:32 10° NNW visible
06 Dec ? 05:46:04 10° NE 05:48:34 17° E 05:51:02 10° SE visible
06 Dec ? 18:01:15 10° S 18:04:51 51° W 18:08:31 10° NNW visible
07 Dec ? 05:27:19 10° ENE 05:28:06 11° E 05:28:54 10° E visible
07 Dec ? 06:58:36 10° NNE 07:02:21 79° WNW 07:06:02 10° SSW visible
07 Dec ? 17:40:54 10° SSE 17:44:36 87° WSW 17:48:21 10° NNW visible
08 Dec ? 06:38:24 10° NNE 06:42:06 61° E 06:45:45 10° S visible
08 Dec ? 17:20:46 10° SSE 17:24:23 56° ENE 17:28:03 10° N visible
08 Dec ? 18:56:18 10° SW 18:58:27 15° W 19:00:36 10° NW visible
